Cosmos 1933 - Orbit

View from above orbital plane
View from above orbital plane
View from above satellite
View from above satellite

Ground track
Ground track

The orbit data is extracted from the following two-line orbital elements,

1 18958U 88020A   13142.43862097  .00001311  00000-0  10581-3 0  9926
2 18958 082.5315 094.7710 0010719 290.5248 069.4825 14.99066470368415
Epoch (UTC): 22 May 2013 10:31:36
Eccentricity: 0.0010719
inclination: 82.5315°
perigee height: 562 km
apogee height: 577 km
right ascension of ascending node: 94.7710°
argument of perigee: 290.5248°
revolutions per day: 14.99066470
mean anomaly at epoch: 69.4825°
orbit number at epoch: 36841

The dashed part of the orbit path shows where the satellite is in the earth's shadow,  

Developed and maintained by Chris Peat, Heavens-Above GmbH. Please read the updated FAQ before sending e-mail. Imprint. DLR